Stündliche Wetter Cayo Largo

Heute, 29 Oktober, Donnerstag

Zeit Temperatur Niederschläge Wind Luftdruck Luftfeuchtigkeit
00:00 +26°C° 0 mm 2 m/S 757 mmHg 93%
01:00 +26°C° 0 mm 2 m/S 757 mmHg 94%
02:00 +26°C° 0 mm 2 m/S 757 mmHg 95%
03:00 +26°C° 0 mm 2 m/S 757 mmHg 96%
04:00 +26°C° 0 mm 2 m/S 757 mmHg 96%
05:00 +26°C° 0 mm 2 m/S 757 mmHg 96%
06:00 +26°C° 0 mm 2 m/S 757 mmHg 97%
07:00 +27°C° 0.2 mm 2 m/S 758 mmHg 91%
08:00 +29°C° 0.2 mm 2 m/S 758 mmHg 86%
09:00 +30°C° 0.2 mm 3 m/S 758 mmHg 80%
10:00 +31°C° 0.6 mm 2 m/S 758 mmHg 78%
11:00 +31°C° 0.6 mm 2 m/S 757 mmHg 77%
12:00 +31°C° 0.6 mm 2 m/S 757 mmHg 75%
13:00 +31°C° 0.5 mm 2 m/S 756 mmHg 75%
14:00 +31°C° 0.5 mm 1 m/S 756 mmHg 75%
15:00 +31°C° 0.5 mm 1 m/S 756 mmHg 75%
16:00 +30°C° 0.7 mm 1 m/S 756 mmHg 80%
17:00 +28°C° 0.7 mm 1 m/S 756 mmHg 85%
18:00 +27°C° 0.7 mm 1 m/S 757 mmHg 90%
19:00 +27°C° 0.2 mm 1 m/S 757 mmHg 90%
20:00 +26°C° 0.2 mm 1 m/S 757 mmHg 91%
21:00 +26°C° 0.2 mm 2 m/S 758 mmHg 92%
22:00 +26°C° 0 mm 2 m/S 758 mmHg 92%
23:00 +26°C° 0 mm 2 m/S 757 mmHg 92%

Morgen, 30 Oktober, Freitag

Zeit Temperatur Niederschläge Wind Luftdruck Luftfeuchtigkeit
00:00 +26°C° 0 mm 2 m/S 757 mmHg 93%
01:00 +26°C° 0 mm 2 m/S 757 mmHg 93%
02:00 +26°C° 0 mm 2 m/S 757 mmHg 93%
03:00 +25°C° 0 mm 2 m/S 756 mmHg 94%
04:00 +25°C° 0 mm 2 m/S 757 mmHg 94%
05:00 +25°C° 0 mm 2 m/S 757 mmHg 94%
06:00 +25°C° 0 mm 2 m/S 757 mmHg 94%
07:00 +27°C° 0.1 mm 2 m/S 758 mmHg 88%
08:00 +29°C° 0.1 mm 2 m/S 758 mmHg 83%
09:00 +30°C° 0.1 mm 2 m/S 758 mmHg 77%
10:00 +30°C° 1 mm 2 m/S 758 mmHg 76%
11:00 +31°C° 1 mm 2 m/S 758 mmHg 76%
12:00 +31°C° 1 mm 2 m/S 757 mmHg 75%
13:00 +31°C° 2.3 mm 2 m/S 757 mmHg 76%
14:00 +30°C° 2.3 mm 2 m/S 757 mmHg 78%
15:00 +30°C° 2.3 mm 2 m/S 756 mmHg 79%
16:00 +29°C° 1.1 mm 2 m/S 757 mmHg 83%
17:00 +28°C° 1.1 mm 2 m/S 757 mmHg 87%
18:00 +27°C° 1.1 mm 2 m/S 758 mmHg 91%
19:00 +26°C° 0.1 mm 2 m/S 758 mmHg 92%
20:00 +26°C° 0.1 mm 2 m/S 759 mmHg 94%
21:00 +26°C° 0.1 mm 2 m/S 759 mmHg 95%
22:00 +26°C° 0 mm 2 m/S 759 mmHg 95%
23:00 +26°C° 0 mm 2 m/S 759 mmHg 96%

übermorgen, 31 Oktober, Samstag

Zeit Temperatur Niederschläge Wind Luftdruck Luftfeuchtigkeit
00:00 +25°C° 0 mm 2 m/S 759 mmHg 96%
01:00 +25°C° 0 mm 2 m/S 759 mmHg 96%
02:00 +25°C° 0 mm 2 m/S 758 mmHg 96%
03:00 +25°C° 0 mm 2 m/S 758 mmHg 96%
04:00 +25°C° 0 mm 2 m/S 758 mmHg 96%
05:00 +25°C° 0 mm 2 m/S 759 mmHg 96%
06:00 +25°C° 0 mm 2 m/S 759 mmHg 96%
07:00 +27°C° 0 mm 2 m/S 759 mmHg 91%
08:00 +28°C° 0 mm 3 m/S 759 mmHg 86%
09:00 +30°C° 0 mm 3 m/S 760 mmHg 80%
10:00 +30°C° 0.5 mm 3 m/S 759 mmHg 78%
11:00 +30°C° 0.5 mm 3 m/S 759 mmHg 76%
12:00 +31°C° 0.5 mm 3 m/S 759 mmHg 74%
13:00 +31°C° 0.9 mm 3 m/S 758 mmHg 75%
14:00 +30°C° 0.9 mm 2 m/S 758 mmHg 76%
15:00 +30°C° 0.9 mm 2 m/S 758 mmHg 77%
16:00 +29°C° 0.3 mm 2 m/S 758 mmHg 81%
17:00 +28°C° 0.3 mm 2 m/S 758 mmHg 86%
18:00 +27°C° 0.3 mm 1 m/S 759 mmHg 90%
19:00 +26°C° 0 mm 2 m/S 759 mmHg 91%
20:00 +26°C° 0 mm 2 m/S 759 mmHg 92%
21:00 +26°C° 0 mm 2 m/S 759 mmHg 93%
22:00 +25°C° 0 mm 2 m/S 759 mmHg 94%
23:00 +25°C° 0 mm 2 m/S 759 mmHg 94%

1 November, Sonntag

Zeit Temperatur Niederschläge Wind Luftdruck Luftfeuchtigkeit
00:00 +25°C° 0 mm 2 m/S 759 mmHg 95%
01:00 +25°C° 0 mm 2 m/S 759 mmHg 95%
02:00 +24°C° 0 mm 2 m/S 759 mmHg 95%
03:00 +24°C° 0 mm 2 m/S 758 mmHg 95%
04:00 +24°C° 0 mm 2 m/S 759 mmHg 95%
05:00 +24°C° 0 mm 2 m/S 759 mmHg 95%
06:00 +24°C° 0 mm 2 m/S 759 mmHg 95%
07:00 +26°C° 0 mm 2 m/S 759 mmHg 89%
08:00 +28°C° 0 mm 3 m/S 760 mmHg 83%
09:00 +30°C° 0 mm 3 m/S 760 mmHg 78%
10:00 +31°C° 0 mm 3 m/S 759 mmHg 73%
11:00 +31°C° 0 mm 3 m/S 759 mmHg 69%
12:00 +33°C° 0 mm 3 m/S 758 mmHg 65%
13:00 +33°C° 0.7 mm 3 m/S 758 mmHg 70%
14:00 +32°C° 0.7 mm 4 m/S 758 mmHg 75%
15:00 +30°C° 0.7 mm 4 m/S 757 mmHg 80%
16:00 +29°C° 0.3 mm 4 m/S 758 mmHg 85%
17:00 +28°C° 0.3 mm 3 m/S 758 mmHg 89%
18:00 +27°C° 0.3 mm 3 m/S 758 mmHg 93%
19:00 +26°C° 0.1 mm 3 m/S 758 mmHg 94%
20:00 +26°C° 0.1 mm 3 m/S 759 mmHg 94%
21:00 +26°C° 0.1 mm 3 m/S 759 mmHg 94%
22:00 +26°C° 0 mm 4 m/S 759 mmHg 94%
23:00 +26°C° 0 mm 4 m/S 758 mmHg 93%

2 November, Montag

Zeit Temperatur Niederschläge Wind Luftdruck Luftfeuchtigkeit
00:00 +26°C° 0 mm 4 m/S 758 mmHg 93%
01:00 +26°C° 0 mm 4 m/S 758 mmHg 92%
02:00 +26°C° 0 mm 4 m/S 758 mmHg 92%
03:00 +26°C° 0 mm 4 m/S 758 mmHg 91%
04:00 +26°C° 0 mm 4 m/S 758 mmHg 91%
05:00 +26°C° 0 mm 4 m/S 758 mmHg 91%
06:00 +26°C° 0 mm 4 m/S 758 mmHg 91%
07:00 +27°C° 0.5 mm 5 m/S 759 mmHg 88%
08:00 +28°C° 0.5 mm 6 m/S 759 mmHg 84%
09:00 +29°C° 0.5 mm 7 m/S 759 mmHg 81%
10:00 +29°C° 0.8 mm 7 m/S 759 mmHg 80%
11:00 +29°C° 0.8 mm 8 m/S 759 mmHg 80%
12:00 +29°C° 0.8 mm 8 m/S 759 mmHg 80%
13:00 +28°C° 0.1 mm 8 m/S 758 mmHg 79%
14:00 +28°C° 0.1 mm 8 m/S 758 mmHg 79%
15:00 +28°C° 0.1 mm 8 m/S 758 mmHg 78%
16:00 +27°C° 0 mm 7 m/S 758 mmHg 79%
17:00 +27°C° 0 mm 7 m/S 759 mmHg 81%
18:00 +26°C° 0 mm 6 m/S 759 mmHg 82%
19:00 +26°C° 0 mm 6 m/S 759 mmHg 81%
20:00 +26°C° 0 mm 7 m/S 760 mmHg 81%
21:00 +26°C° 0 mm 7 m/S 760 mmHg 81%
22:00 +26°C° 0 mm 7 m/S 760 mmHg 80%
23:00 +24°C° 0 mm 7 m/S 760 mmHg 80%

3 November, Dienstag

Zeit Temperatur Niederschläge Wind Luftdruck Luftfeuchtigkeit
00:00 +24°C° 0 mm 8 m/S 759 mmHg 80%
01:00 +24°C° 0 mm 7 m/S 759 mmHg 80%
02:00 +23°C° 0 mm 7 m/S 759 mmHg 80%
03:00 +23°C° 0 mm 6 m/S 759 mmHg 81%
04:00 +23°C° 0 mm 6 m/S 759 mmHg 82%
05:00 +23°C° 0 mm 6 m/S 760 mmHg 84%
06:00 +23°C° 0 mm 6 m/S 760 mmHg 86%
07:00 +24°C° 0 mm 7 m/S 760 mmHg 83%
08:00 +26°C° 0 mm 7 m/S 761 mmHg 79%
09:00 +27°C° 0 mm 8 m/S 761 mmHg 76%
10:00 +27°C° 0.1 mm 8 m/S 761 mmHg 76%
11:00 +27°C° 0.1 mm 8 m/S 761 mmHg 75%
12:00 +28°C° 0.1 mm 8 m/S 760 mmHg 75%
13:00 +27°C° 0 mm 8 m/S 760 mmHg 75%
14:00 +27°C° 0 mm 8 m/S 760 mmHg 76%
15:00 +27°C° 0 mm 8 m/S 759 mmHg 76%
16:00 +26°C° 0 mm 7 m/S 760 mmHg 78%
17:00 +24°C° 0 mm 7 m/S 760 mmHg 80%
18:00 +23°C° 0 mm 6 m/S 760 mmHg 82%
19:00 +23°C° 0 mm 6 m/S 760 mmHg 84%
20:00 +23°C° 0 mm 5 m/S 761 mmHg 85%
21:00 +23°C° 0 mm 5 m/S 761 mmHg 86%
22:00 +23°C° 0 mm 5 m/S 761 mmHg 86%
23:00 +23°C° 0 mm 5 m/S 760 mmHg 86%
Mehr zeigen